Weather History for Arad, Romania

Change the Weather History Date:

Wednesday, September 18, 2013

  Actual Average Record
Temperature  
Mean Temperature 54 °F -  
Max Temperature 64 °F 66 °F 89 °F (2011)
Min Temperature 43 °F 45 °F 43 °F (2013)
Degree Days  
Heating Degree Days 12    
Growing Degree Days 4 (Base 50)    
Moisture  
Dew Point 46 °F    
Average Humidity 71    
Maximum Humidity 100    
Minimum Humidity 36    
Precipitation  
Precipitation 0.00 in - - ()
Sea Level Pressure  
Sea Level Pressure 29.70 in    
Wind  
Wind Speed 8 mph ()    
Max Wind Speed 16 mph    
Max Gust Speed -    
Visibility 7.6 miles    
Events      
Averages and records for this station are not official NWS values.
T = Trace of Precipitation, MM = Missing Value Source: Averaged Metar Reports

Daily Weather History Graph

Daily Weather History Graph

Search for Another Location

Airport:

Trip Planner

Search our weather history database for the weather conditions in past years. The results will help you decide how hot, cold, wet, or windy it might be!

Date:

Astronomy

Sep. 18, 2013 Rise Set
Actual Time 7:16 AM EEST 7:40 PM EEST
Civil Twilight 6:46 AM EEST 8:10 PM EEST
Nautical Twilight 6:11 AM EEST 8:45 PM EEST
Astronomical Twilight 5:34 AM EEST 9:22 PM EEST
Moon 6:52 PM EEST (9/18) 5:56 AM EEST (9/18)
Length of Visible Light 13h 23m
Length of Day
12h 23m
Waxing Gibbous, 98% of the Moon is Illuminated
Sep 18
Waxing Gibbous
Sep 19
Full
Sep 27
Last Quarter
Oct 5
New
Oct 12
First Quarter

Hourly Weather History & Observations

Time (EEST) Temp. Windchill Dew Point Humidity Pressure Visibility Wind Dir Wind Speed Gust Speed Precip Events Conditions
12:00 AM 49 °F - 45 °F 81% 29.70 in 6 mi SW 4.5 mph - -   Mostly Cloudy
12:00 AM 48.2 °F - 48.2 °F 100% 29.68 in 6.2 mi WSW 11.5 mph - N/A   Unknown
1:00 AM 47 °F - 43 °F 82% 29.72 in 6 mi SW 4.5 mph - -   Scattered Clouds
1:00 AM 46.4 °F 41.1 °F 46.4 °F 100% 29.71 in 6.2 mi WSW 11.5 mph - N/A   Unknown
2:00 AM 46 °F - 43 °F 84% 29.73 in 6 mi SSW 4.5 mph - -  
2:00 AM - - - N/A% 29.68 in 6.2 mi WSW 9.2 mph - N/A   Unknown
3:00 AM 46 °F - 44 °F 89% 29.72 in 6 mi SSW 4.5 mph - -   Mostly Cloudy
3:00 AM - - - N/A% 29.68 in 6.2 mi WSW 9.2 mph - N/A   Scattered Clouds
4:00 AM 47 °F - 45 °F 89% 29.73 in 6 mi SW 4.5 mph - -   Mostly Cloudy
4:00 AM - - - N/A% 29.71 in 6.2 mi WSW 11.5 mph - N/A   Scattered Clouds
5:00 AM - - - N/A% 29.71 in 6.2 mi WSW 11.5 mph - N/A   Mostly Cloudy
5:30 AM - - - N/A% 29.71 in 6.2 mi WSW 11.5 mph - N/A   Partly Cloudy
6:00 AM 46 °F - 44 °F 89% 29.72 in 6 mi SW 4.5 mph - -   Scattered Clouds
6:00 AM 44.6 °F 40.2 °F 44.6 °F 100% 29.71 in 6.2 mi SW 8.1 mph - N/A   Partly Cloudy
6:30 AM 44.6 °F 40.2 °F 44.6 °F 100% 29.71 in - SSW 8.1 mph - N/A   Clear
7:00 AM 44.6 °F 40.2 °F 44.6 °F 100% 29.71 in - SW 8.1 mph - N/A   Clear
7:30 AM 44.6 °F 39.2 °F 44.6 °F 100% 29.71 in 6.2 mi SW 10.4 mph - N/A   Partly Cloudy
8:00 AM 44 °F - 43 °F 97% 29.73 in 6 mi SW 4.5 mph - -   Scattered Clouds
8:00 AM 44.6 °F 39.7 °F 44.6 °F 100% 29.71 in 6.2 mi WSW 9.2 mph - N/A   Partly Cloudy
8:30 AM 46.4 °F 42.9 °F 46.4 °F 100% 29.71 in 6.2 mi WSW 6.9 mph - N/A   Partly Cloudy
9:00 AM 45 °F - 44 °F 96% 29.73 in 6 mi SW 4.5 mph - -   Partly Cloudy
9:00 AM 48.2 °F - 48.2 °F 100% 29.71 in - West 9.2 mph - N/A   Clear
9:30 AM 50.0 °F - 50.0 °F 100% 29.71 in 6.2 mi West 13.8 mph - N/A   Partly Cloudy
10:00 AM 49 °F - 46 °F 85% 29.73 in 6 mi WSW 4.5 mph - -   Scattered Clouds
10:00 AM 51.8 °F - 50.0 °F 94% 29.71 in 6.2 mi West 13.8 mph - N/A   Partly Cloudy
10:30 AM 53.6 °F - 50.0 °F 88% 29.71 in 6.2 mi West 16.1 mph - N/A   Partly Cloudy
11:00 AM 54 °F - 46 °F 67% 29.73 in 6 mi West 4.5 mph - -   Scattered Clouds
11:00 AM 55.4 °F - 50.0 °F 82% 29.71 in 6.2 mi West 16.1 mph - N/A   Partly Cloudy
11:30 AM 57.2 °F - 46.4 °F 67% 29.71 in 6.2 mi West 16.1 mph - N/A   Partly Cloudy
12:00 PM 57 °F - 45 °F 54% 29.73 in 12 mi West 4.5 mph - -   Partly Cloudy
12:00 PM 59.0 °F - 46.4 °F 63% 29.71 in 6.2 mi West 16.1 mph - N/A   Partly Cloudy
12:30 PM 60.8 °F - 48.2 °F 63% 29.71 in 6.2 mi WNW 13.8 mph - N/A   Scattered Clouds
1:00 PM 61 °F - 44 °F 43% 29.72 in 12 mi West 4.5 mph - -   Partly Cloudy
1:00 PM 60.8 °F - 46.4 °F 59% 29.71 in 6.2 mi West 13.8 mph - N/A   Mostly Cloudy
1:30 PM 60.8 °F - 46.4 °F 59% 29.71 in 6.2 mi West 11.5 mph - N/A   Mostly Cloudy
2:00 PM 60 °F - 44 °F 45% 29.71 in 12 mi WSW 4.5 mph - -   Partly Cloudy
2:00 PM 62.6 °F - 44.6 °F 52% 29.71 in 6.2 mi West 13.8 mph - N/A   Scattered Clouds
2:30 PM 60.8 °F - 46.4 °F 59% 29.71 in 6.2 mi West 13.8 mph - N/A   Scattered Clouds
3:00 PM 62 °F - 43 °F 38% 29.71 in 12 mi WSW 4.5 mph - -   Partly Cloudy
3:00 PM 62.6 °F - 42.8 °F 48% 29.68 in 6.2 mi West 13.8 mph - N/A   Scattered Clouds
3:30 PM 62.6 °F - 44.6 °F 52% 29.68 in 6.2 mi WSW 13.8 mph - N/A   Scattered Clouds
4:00 PM 62 °F - 42 °F 36% 29.69 in 12 mi WSW 4.5 mph - -   Partly Cloudy
4:00 PM 62.6 °F - 44.6 °F 52% 29.68 in - SW 13.8 mph - N/A   Clear
4:30 PM 60.8 °F - 44.6 °F 55% 29.68 in - WSW 11.5 mph - N/A   Clear
5:00 PM 62 °F - 43 °F 38% 29.68 in 12 mi SW 6.7 mph - -   Mostly Cloudy
5:00 PM 60.8 °F - 46.4 °F 59% 29.68 in - WSW 11.5 mph - N/A   Clear
5:30 PM 59.0 °F - 46.4 °F 63% 29.68 in - WSW 9.2 mph - N/A   Clear
6:00 PM 60 °F - 42 °F 41% 29.68 in 12 mi SW 4.5 mph - -   Overcast
6:00 PM 59.0 °F - 44.6 °F 59% 29.68 in - WSW 6.9 mph - N/A   Clear
6:30 PM 59.0 °F - 44.6 °F 59% 29.68 in - SW 6.9 mph - N/A   Clear
7:00 PM 59 °F - 44 °F 46% 29.68 in 12 mi SSW 2.2 mph - -   Overcast
7:00 PM 57.2 °F - 46.4 °F 67% 29.65 in - SSW 4.6 mph - N/A   Clear
7:30 PM 57.2 °F - 46.4 °F 67% 29.65 in - South 4.6 mph - N/A   Clear
8:00 PM 57 °F - 45 °F 55% 29.68 in 12 mi South 2.2 mph - -   Overcast
8:00 PM 57.2 °F - 46.4 °F 67% 29.65 in - SSE 4.6 mph - N/A   Clear
8:30 PM 57.2 °F - 46.4 °F 67% 29.65 in - SSE 4.6 mph - N/A   Clear
9:00 PM 56 °F - 45 °F 58% 29.66 in 12 mi SSE 2.2 mph - -   Overcast
9:00 PM 57.2 °F - 46.4 °F 67% 29.65 in - SSE 5.8 mph - N/A   Clear
9:30 PM 57.2 °F - 46.4 °F 67% 29.65 in - SSE 6.9 mph - N/A   Clear
10:00 PM 56 °F - 46 °F 60% 29.66 in 12 mi SE 4.5 mph - -   Overcast
10:00 PM 57.2 °F - 46.4 °F 67% 29.65 in - SSE 6.9 mph - N/A   Clear
11:00 PM 56 °F - 46 °F 59% 29.66 in 12 mi SSE 4.5 mph - -   Overcast
11:00 PM 57.2 °F - 48.2 °F 72% 29.65 in 6.2 mi South 9.2 mph - N/A   Partly Cloudy